, CA

(GMT )
Point Mugu

Weather History for KNTD - March, 2014

Change the Weather History Date:

Sunday, March 23, 2014

  Actual Average Record
Temperature  
Mean Temperature 58 °F -  
Max Temperature 66 °F 61 °F 84 °F (2008)
Min Temperature 50 °F 46 °F 35 °F (2009)
Degree Days  
Heating Degree Days 7    
Growing Degree Days 8 (Base 50)    
Moisture  
Dew Point 51 °F    
Average Humidity 77    
Maximum Humidity 86    
Minimum Humidity 63    
Precipitation  
Precipitation 0.00 in - - ()
Sea Level Pressure  
Sea Level Pressure 30.09 in    
Wind  
Wind Speed 5 mph (NW)    
Max Wind Speed 12 mph    
Max Gust Speed -    
Visibility 7 miles    
Events      
Averages and records for this station are not official NWS values.
T = Trace of Precipitation, MM = Missing Value Source: NWS Daily Summary

Daily Weather History Graph

Daily Weather History Graph

Search for Another Location

Airport or City:

Trip Planner

Search our weather history database for the weather conditions in past years. The results will help you decide how hot, cold, wet, or windy it might be!

Date:

Astronomy

Mar. 23, 2014 Rise Set
Actual Time 6:55 AM PDT 7:10 PM PDT
Civil Twilight 6:30 AM PDT 7:35 PM PDT
Nautical Twilight 6:01 AM PDT 8:04 PM PDT
Astronomical Twilight 5:32 AM PDT 8:34 PM PDT
Moon 1:19 AM PDT (3/23) 11:54 AM PDT (3/23)
Length of Visible Light 13h 04m
Length of Day
12h 14m
Waning Gibbous, 53% of the Moon is Illuminated
Mar 23
Waning Gibbous
Mar 23
Last Quarter
Mar 30
New
Apr 7
First Quarter
Apr 15
Full

Hourly Weather History & Observations

Time (PDT) Temp. Dew Point Humidity Pressure Visibility Wind Dir Wind Speed Gust Speed Precip Events Conditions
12:54 AM 55.0 °F 50.0 °F 83% 30.11 in - NNE 3.5 mph - N/A   Clear
1:54 AM 53.1 °F 48.9 °F 86% 30.11 in - North 4.6 mph - N/A   Clear
2:54 AM 52.0 °F 48.0 °F 86% 30.09 in - NNW 4.6 mph - N/A   Clear
3:54 AM 51.1 °F 46.9 °F 86% 30.08 in - NNW 4.6 mph - N/A   Clear
4:54 AM 51.1 °F 46.9 °F 86% 30.09 in - NW 3.5 mph - N/A   Clear
5:54 AM 50.0 °F 46.0 °F 86% 30.10 in - ENE 3.5 mph - N/A   Clear
6:32 AM 50.0 °F 45.0 °F 83% 30.10 in - NE 3.5 mph - N/A   Mostly Cloudy
6:54 AM 51.1 °F 46.9 °F 86% 30.12 in 7.0 mi Calm Calm - N/A   Mostly Cloudy
7:54 AM 54.0 °F 48.9 °F 83% 30.13 in 7.0 mi ENE 4.6 mph - N/A   Mostly Cloudy
8:38 AM 55.9 °F 50.0 °F 80% 30.13 in 7.0 mi North 3.5 mph - N/A   Mostly Cloudy
8:54 AM 57.9 °F 51.1 °F 78% 30.14 in 7.0 mi North 3.5 mph - N/A   Mostly Cloudy
9:51 AM 62.6 °F 51.8 °F 68% 30.14 in 7.0 mi NW 3.5 mph - N/A   Scattered Clouds
9:54 AM 61.0 °F 52.0 °F 72% 30.15 in 7.0 mi Calm Calm - N/A   Scattered Clouds
10:54 AM 63.0 °F 53.1 °F 70% 30.15 in 7.0 mi WSW 5.8 mph - N/A   Scattered Clouds
11:54 AM 64.9 °F 52.0 °F 63% 30.14 in 7.0 mi WSW 8.1 mph - N/A   Scattered Clouds
12:54 PM 64.9 °F 53.1 °F 65% 30.12 in 7.0 mi WSW 9.2 mph - N/A   Mostly Cloudy
1:54 PM 66.0 °F 53.1 °F 63% 30.10 in 7.0 mi West 9.2 mph - N/A   Mostly Cloudy
2:54 PM 66.0 °F 53.1 °F 63% 30.08 in 7.0 mi West 10.4 mph - N/A   Mostly Cloudy
3:54 PM 64.0 °F 53.1 °F 67% 30.06 in 7.0 mi West 11.5 mph - N/A   Mostly Cloudy
4:54 PM 63.0 °F 53.1 °F 70% 30.04 in 7.0 mi West 11.5 mph - N/A   Mostly Cloudy
5:54 PM 61.0 °F 53.1 °F 75% 30.04 in 7.0 mi WNW 9.2 mph - N/A   Mostly Cloudy
6:54 PM 60.1 °F 52.0 °F 75% 30.04 in 7.0 mi West 8.1 mph - N/A   Mostly Cloudy
7:54 PM 60.1 °F 53.1 °F 78% 30.04 in 7.0 mi WNW 4.6 mph - N/A   Mostly Cloudy
8:54 PM 59.0 °F 53.1 °F 81% 30.05 in 7.0 mi Calm Calm - N/A   Mostly Cloudy
9:54 PM 57.9 °F 53.1 °F 84% 30.06 in 7.0 mi WNW 5.8 mph - N/A   Mostly Cloudy
10:54 PM 59.0 °F 54.0 °F 83% 30.07 in 7.0 mi West 5.8 mph - N/A   Mostly Cloudy
11:01 PM 59.0 °F 54.0 °F 83% 30.07 in - West 5.8 mph - N/A   Overcast
11:54 PM 57.9 °F 53.1 °F 84% 30.08 in - WSW 4.6 mph - N/A   Overcast